Regional Weather Roundup
Issued by NWS

Home | Current Version | Previous Version | Graphics & Text | Print | Product List | Glossary Off
Versions: 1 2 3 4 5 6 7 8 9 10 11 12 13 14 15 16 17 18 19 20 21 22 23 24 25 26 27 28 29 30 31 32 33 34 35 36 37 38 39 40 41 42 43 44 45 46 47 48 49 50

000
ASUS43 KMPX 252101
RWRMN
WEATHER ROUNDUP FOR MINNESOTA
NATIONAL WEATHER SERVICE TWIN CITIES/CHANHASSEN MN
400 PM CDT SAT OCT 25 2014


NOTE: "FAIR" INDICATES FEW OR NO CLOUDS BELOW 12,000 FEET WITH NO
SIGNIFICANT WEATHER AND/OR OBSTRUCTIONS TO VISIBILITY. N/A MEANS
CURRENT SKY AND/OR WEATHER CONDITIONS ARE NOT AVAILABLE.

MNZ060>063-068>070-252200-
   Twin Cities Metro

CITY           SKY/WX    TMP DP  RH WIND       PRES   REMARKS
TWIN CITIES    SUNNY     62  25  24 NW18G28   30.03F
ST PAUL        SUNNY     63  29  27 W16G25    30.03S
CRYSTAL        SUNNY     64  24  21 W17G24    30.02F
BLAINE         SUNNY     64  27  24 NW14G22   30.02S
LAKEVILLE      SUNNY     61  28  29 NW17G23   30.03S
EDEN PRAIRIE   SUNNY     63  26  24 NW14      30.03S
SOUTH ST PAUL  SUNNY     63  28  26 W12G23    30.02S
LAKE ELMO      FAIR      63  28  27 NW14G21   30.02F
$$
MNZ001>005-007-008-013>017-022>024-027-028-252200-
   Northwest Minnesota

CITY           SKY/WX    TMP DP  RH WIND       PRES   REMARKS
BEMIDJI        SUNNY     55  26  32 W18G26    30.02R
HALLOCK        SUNNY     61  18  18 NW20G26   30.01S
ROSEAU         SUNNY     57  25  28 NW14G25   29.98S
WARROAD        SUNNY     55  28  35 NW21G28   29.98R
THIEF RVR FALL SUNNY     57  25  28 NW20      30.04R
CROOKSTON      SUNNY     59  27  29 NW14      30.06S
FOSSTON        SUNNY     57  25  28 W15G23    30.05S
DETROIT LAKES  SUNNY     55  28  35 NW16      30.07S
MOORHEAD       SUNNY     61  10  13 NW14      30.08S
PARK RAPIDS    SUNNY     57  22  25 NW23G30   30.03S
MAHNOMEN       FAIR      57  25  28 NW17      30.05S
$$
MNZ006-009>011-018-025>026-252200-
   North Central Minnesota

CITY           SKY/WX    TMP DP  RH WIND       PRES   REMARKS
BAUDETTE       SUNNY     55  26  32 W15G24    29.95S
FLAG ISLAND    SUNNY     54  30  40 NW24G35   29.93R
INTL FALLS     SUNNY     54  28  36 W15G26    29.92R
WASKISH        SUNNY     55  34  44 W16G22    29.99R
BIG FORK       SUNNY     55  27  33 W8G25     29.96R
LONGVILLE      SUNNY     57  23  26 W13G22    30.01R
GRAND RAPIDS   SUNNY     55  25  30 W18G32    29.98R
CRANE LAKE     SUNNY     52  25  35 NW10G24   29.91R
ORR            SUNNY     55  21  26 NW16G28   29.89S
COOK           SUNNY     55  27  33 W16G25    29.91R
WALKER         FAIR      56  24  28 W16G26    30.01R
$$
MNZ012-019>021-037-252200-
   Northeast Minnesota

CITY           SKY/WX    TMP DP  RH WIND       PRES   REMARKS
DULUTH         SUNNY     58  22  24 NW16G38   29.91R
ELY            SUNNY     54  23  30 W16G31    29.87R
HIBBING        SUNNY     57  24  28 NW16G30   29.93R
EVELETH        SUNNY     54  25  32 W21G31    29.93R
DULUTH HARBOR  SUNNY     61  27  27 W25       29.92R
TWO HARBORS    SUNNY     63   0   8 NW16G22   29.87R
SILVER BAY     SUNNY     61  25  25 W10G22    29.84R
GRAND MARAIS     N/A     58  28  32 W14G35    29.79R
G MARAIS ARPRT SUNNY     52  27  37 W14G25    29.79R
$$
MNZ029>031-032-039>041-046>048-054>057-064-252200-
   West Central Minnesota

CITY           SKY/WX    TMP DP  RH WIND       PRES   REMARKS
FERGUS FALLS   SUNNY     61  19  20 N13       30.09R
WHEATON        SUNNY     61  28  29 W15       30.10F
MORRIS         SUNNY     63  28  27 NW16      30.08S
ALEXANDRIA     SUNNY     58  25  28 NW15      30.09S
ELBOW LAKE     FAIR      58  27  30 NW13G21   30.08S
WADENA         SUNNY     55  28  35 NW15G22   30.05F
GLENWOOD       SUNNY     59  25  27 NW15      30.09R
APPLETON       SUNNY     64  25  22 NW15      30.09S
BENSON         SUNNY     61  28  29 N13       30.09S
ORTONVILLE     SUNNY     63  27  25 N9        30.09F
MADISON        SUNNY     64  28  25 NW12G17   30.10S
WILLMAR        FAIR      63  21  20 NW17G23   30.10R
$$
MNZ033>034-036-042>043-049>051-058-059-252200-
   Central Minnesota

CITY           SKY/WX    TMP DP  RH WIND       PRES   REMARKS
ST CLOUD       SUNNY     64  25  22 NW16G28   30.04S
SAUK CENTRE    FAIR      58  26  28 NW14      30.07S
PAYNESVILLE    SUNNY     58  24  27 W14G22    30.07S
AITKIN         SUNNY     63  14  15 W10G18    29.99S
PINE RIVER     SUNNY     57  28  33 W10G23    30.05S
BRAINERD       SUNNY     57  21  24 NW20G26   30.03S
STAPLES        SUNNY     57  25  28 NW15G23   30.05S
LONG PRAIRIE   FAIR      57  25  28 NW16G22   30.07S
LITTLE FALLS   SUNNY     59  25  27 NW10G22   30.05S
LITCHFIELD     SUNNY     63  21  20 NW17G23   30.07S
BUFFALO        SUNNY     62  24  23 W15       30.05S
MAPLE LAKE     SUNNY     62  27  26 W15G22    30.06R
$$
MNZ037-044-045-052-053-252200-
   East Central Minnesota

CITY           SKY/WX    TMP DP  RH WIND       PRES   REMARKS
PRINCETON      SUNNY     63  27  25 W13G21    30.03S
MORA           SUNNY     59  25  27 NW14G22   30.02R
CAMBRIDGE      SUNNY     64  37  36 W17G25    30.00S
RUSH CITY      SUNNY     62  24  22 W13G20    30.00S
MOOSE LAKE     SUNNY     59  27  29 NW14G23   29.96R
HINCKLEY       FAIR      61  27  27 W5G17     29.99R
CLOQUET        SUNNY     57  19  23 W20       29.94R
MCGREGOR       SUNNY     57  25  28 NW18G24   29.99S
$$
MNZ071>073-080-081-089-090-097-098-252200-
   Southwest Minnesota

CITY           SKY/WX    TMP DP  RH WIND       PRES   REMARKS
MONTEVIDEO     SUNNY     64  30  27 N13       30.10S
GRANITE FALLS  SUNNY     63  30  29 NW12G17   30.11S
CANBY          SUNNY     63  31  30 N5        30.11F
MARSHALL       SUNNY     63  28  27 N9        30.10S
REDWOOD FALLS  SUNNY     64  28  25 NW12      30.09S
OLIVIA         SUNNY     63  32  31 NW14      30.08S
PIPESTONE      SUNNY     64  27  24 N6        30.10S
WINDOM         SUNNY     64  27  24 NW8       30.10S
WORTHINGTON    SUNNY     64  28  25 NW8       30.11F
JACKSON        SUNNY     66  25  20 N7        30.10F
TRACY          SUNNY     65  31  27 N14       30.10F
SLAYTON        SUNNY     63  26  24 N8        30.11F
$$
MNZ065>067-074>077-082>085-091>093-252200-
   South Central Minnesota

CITY           SKY/WX    TMP DP  RH WIND       PRES   REMARKS
MANKATO        SUNNY     64  28  25 NW18G25   30.07S
NEW ULM        SUNNY     63  34  34 NW15      30.08R
ST JAMES       SUNNY     66  25  20 NW12      30.09F
FAIRMONT       SUNNY     66  -8   5 NW12      30.09S
GLENCOE        SUNNY     64  30  28 W15G22    30.06S
FARIBAULT      SUNNY     64  28  25 W14G23    30.05S
OWATONNA       SUNNY     64  25  22 NW15G24   30.05S
WASECA         SUNNY     61  21  21 NW16G22   30.08S
ALBERT LEA     SUNNY     64  27  24 NW10G16   30.06S
$$
MNZ078>079-086>088-094>096-252200-
   Southeast Minnesota

CITY           SKY/WX    TMP DP  RH WIND       PRES   REMARKS
ROCHESTER      SUNNY     63  27  25 NW13G29   30.04F
RED WING       SUNNY     64  25  22 NW9G22    30.01S
STANTON        SUNNY     64  26  23 NW17G23   30.02S
DODGE CENTER   SUNNY     63  27  25 NW17G25   30.04S
WINONA         SUNNY     63  30  29 NW12G22   30.00S
AUSTIN         SUNNY     63  28  27 NW15G21   30.05S
PRESTON        SUNNY     61  29  29 NW16G23   30.04S
$$
ABBREVIATIONS USED IN REMARKS
   TC - TEMPERATURES IN CELSIUS
  WCI - WIND CHILL INDEX
   HX - HEAT INDEX
  VSB - VISIBILITY
$$



USA.gov is the U.S. government's official web portal to all federal, state and local government web resources and services.